GW4148 Weather Reports


time (UTC)temp
C
wind
direction
speed
KPH
gust
KPH
rain 1hr
cm
rain 24hr
cm
rain mn
cm
humidity
%
barometer
mb
20260503013016 18 86 1.6 4.8 0.03 1.22 1.22 90 1019.9
20260503011518 19 96 0.0 0.0 0.03 1.19 1.19 90 1019.8
20260503010027 19 96 0.0 1.6 0.08 1.19 1.19 90 1019.8
20260503004533 19 105 0.0 3.2 0.10 1.19 1.19 90 1019.9
20260503003022 20 76 1.6 9.7 0.13 1.19 1.19 90 1019.9
20260503001514 20 71 0.0 3.2 0.10 1.17 1.17 90 1019.9
20260503000023 20 85 0.0 1.6 0.05 1.12 1.12 90 1019.9
20260502234529 20 79 3.2 8.0 0.03 1.09 1.09 89 1019.9
20260502233028 20 76 1.6 4.8 0.03 1.07 1.07 90 1019.6
20260502231512 20 98 0.0 3.2 0.03 1.07 1.07 89 1019.4
20260502230023 20 74 1.6 6.4 0.03 1.07 1.07 89 1019.2
20260502224501 20 63 1.6 11.3 0.03 1.07 1.07 89 1019.0
20260502223006 20 74 0.0 0.0 0.00 1.04 1.04 89 1019.1
20260502221508 20 172 1.6 6.4 0.00 1.04 1.04 89 1018.9
20260502220015 20 188 0.0 3.2 0.00 1.04 1.04 89 1018.9
20260502214501 20 141 0.0 3.2 0.00 1.04 1.04 90 1018.8
20260502213002 20 112 0.0 0.0 0.03 1.04 1.04 91 1018.6
20260502211508 20 112 0.0 1.6 0.03 1.04 1.04 92 1018.6
20260502210013 20 112 0.0 3.2 0.03 1.04 1.04 91 1018.8
20260502204518 20 72 3.2 9.7 0.03 1.04 1.04 91 1018.9
20260502203003 19 67 9.7 17.7 0.10 1.02 1.02 90 1018.8
20260502200008 19 28 4.8 20.9 1.02 1.02 1.02 91 1018.7
20260502194513 19 333 9.7 20.9 1.02 1.02 1.02 91 1018.4
20260502193020 19 49 12.9 29.0 0.91 0.91 0.91 89 1018.5
20260502191523 20 38 14.5 29.0 0.79 0.79 0.79 89 1018.6
20260502190012 22 20 16.1 32.2 0.00 0.00 0.00 83 1018.5
20260502184525 22 42 19.3 37.0 0.00 0.00 0.00 82 1018.6
20260502183026 24 16 17.7 35.4 0.00 0.00 0.00 74 1018.7
20260502181521 25 86 14.5 32.2 0.00 0.00 0.00 74 1018.9
20260502163011 26 41 16.1 27.4 0.00 0.00 0.00 66 1020.1
20260502161521 26 335 16.1 27.4 0.00 0.00 0.00 64 1020.3
20260502151514 23 32 14.5 25.7 0.00 0.00 0.00 76 1020.3
20260502123029 21 147 4.8 6.4 0.00 0.00 0.00 78 1019.3
20260502121504 21 155 0.0 3.2 0.00 0.00 0.00 80 1019.2
20260502114511 19 77 0.0 9.7 0.00 0.00 0.00 90 1019.5
20260502113017 18 1 1.6 4.8 0.00 0.00 0.00 92 1019.4
20260502111522 18 101 0.0 4.8 0.00 0.00 0.00 93 1019.2
20260502110013 18 342 3.2 9.7 0.00 0.00 0.00 93 1018.8
20260502104508 18 30 9.7 16.1 0.00 0.00 0.00 92 1018.7
20260502103016 18 90 6.4 14.5 0.00 0.00 0.00 92 1018.6
20260502101534 19 352 0.0 0.0 0.00 0.00 0.00 93 1018.3
20260502091518 19 352 0.0 0.0 0.00 0.00 0.00 93 1017.7
20260502064522 20 1 0.0 0.0 0.00 0.00 0.00 92 1018.9
20260502063028 20 1 0.0 0.0 0.00 0.00 0.00 92 1018.8
20260502061509 20 1 0.0 0.0 0.00 0.00 0.00 92 1018.7
20260502060018 20 49 0.0 0.0 0.00 0.00 0.00 92 1019.1
20260502054519 20 345 0.0 0.0 0.00 0.00 0.00 92 1019.4
20260502053024 20 265 0.0 3.2 0.00 0.00 0.00 92 1019.5
20260502051529 20 351 0.0 0.0 0.00 0.00 0.00 92 1019.9
20260502050035 20 351 0.0 0.0 0.00 0.00 0.00 92 1020.2
20260502044516 20 351 0.0 0.0 0.00 0.00 0.00 92 1020.2
20260502043022 20 351 0.0 0.0 0.00 0.00 0.00 92 1019.9
20260502041531 20 351 0.0 0.0 0.00 0.00 0.00 92 1020.1
20260502040024 20 355 0.0 0.0 0.00 0.00 0.00 92 1020.1
20260502034526 20 331 0.0 0.0 0.00 0.00 0.00 92 1020.1
20260502033017 20 330 0.0 0.0 0.00 0.00 0.00 92 1020.1
20260502031523 20 332 0.0 0.0 0.00 0.00 0.00 92 1020.1
20260502030026 20 304 0.0 0.0 0.00 0.00 0.00 92 1020.1
20260502024527 20 58 0.0 0.0 0.00 0.00 0.00 91 1019.9
20260502023026 20 21 0.0 0.0 0.00 0.00 0.00 91 1019.8
20260502021521 20 21 0.0 0.0 0.00 0.00 0.00 91 1019.6
20260502020002 20 21 0.0 0.0 0.00 0.00 0.00 90 1019.2
20260502014515 20 21 0.0 0.0 0.00 0.00 0.00 90 1018.4